Voltar ao catálogo

STARLINK-33577

AtivoComunicaçõesVLEO
NORAD 62762·PAYLOAD·🇺🇸 United States

Lançado Jan 21, 2025 de Vandenberg Space Force Base

Loading…

Próximas Passagens (próximas 24 horas)

TLE

AtualizadoSource: CelesTrak SupGP

Época: Sep 14, 2026, 22:24 UTC

1 62762C 25015E   26257.93381944 -.00039839  00000+0 -12808-2 0  2570
2 62762  53.1567 161.6224 0001206  80.5766 178.9602 15.31728420    12

Acompanhe STARLINK-33577 em tempo real com AllMySat

Download on the App Store